Location: アルンシュタイン
(50.0000°N, 10.0000°E)
Time: 16:03:53
(UTC+02:00)

Vanguard 1 - Pass Details

Date: 15 September 2024
Orbit: 649 x 3825 km, 34.3° (Epoch: 02 October)

Event Time Altitude Azimuth Distance (km) Brightness Sun altitude
Rises 12:57:00 0° 217° (SW) 6,440 14.7 42.6°
Reaches altitude 10° 13:03:30 10° 202° (SSW) 4,754 14.5 42.7°
Maximum altitude 13:10:53 18° 166° (SSE) 3,276 14.1 42.7°
Drops below altitude 10° 13:16:12 10° 125° (SE) 3,263 13.2 42.7°
Sets 13:19:30 0° 106° (ESE) 3,844 13.3 42.7°
